Regional Weather Roundup
Issued by NWS

Home | Current Version | Previous Version | Graphics & Text | Print | Product List | Glossary On
Versions: 1 2 3 4 5 6 7 8 9 10 11 12 13 14 15 16 17 18 19 20 21 22 23 24 25 26 27 28 29 30 31 32 33 34 35 36 37 38 39 40 41 42 43 44 45 46 47 48 49 50
000
ASUS43 KMKX 190921
RWRWI

WISCONSIN REGIONAL WEATHER ROUNDUP
NATIONAL WEATHER SERVICE MILWAUKEE/SULLIVAN WI
300 AM CST FRI DEC 19 2014

NOTE: "FAIR" INDICATES FEW OR NO CLOUDS BELOW 12,000 FEET WITH NO
SIGNIFICANT WEATHER AND/OR OBSTRUCTIONS TO VISIBILITY.

WIZ001-002-006>008-014>016-023>028-191000-
NORTHWEST WISCONSIN

CITY           SKY/WX    TMP DP  RH WIND       PRES   REMARKS
SUPERIOR ARPT  CLOUDY    23  20  89 W6        30.28S WCI  16
ASHLAND        CLOUDY    22  19  89 CALM      30.28F
HAYWARD        CLOUDY    22  18  85 SW7       30.25S WCI  13
SIREN          CLOUDY    23  19  84 S5        30.27S WCI  16
CUMBERLAND     CLOUDY    21  19  93 S7        30.25S WCI  13
RICE LAKE      CLOUDY    23  20  89 S5        30.28S WCI  17
CHETEK         CLOUDY    23  20  89 S6        30.27S WCI  15
LADYSMITH      CLOUDY    24  22  91 CALM      30.27S
EAU CLAIRE     CLOUDY    24  19  81 SW5       30.28R WCI  18
MENOMONIE      CLOUDY    24  20  82 S5        30.28S WCI  19
NEW RICHMOND   CLOUDY    22  19  89 S6        30.27F WCI  14
OSCEOLA        CLOUDY    23  19  84 S5        30.31R WCI  16
$$

WIZ003>005-009-010-017-018-191000-
NORTH CENTRAL WISCONSIN

CITY           SKY/WX    TMP DP  RH WIND       PRES   REMARKS
MANITOWISH WTR CLOUDY     7   5  91 CALM      30.23S
ARBOR VITAE    PTCLDY     5   1  85 CALM      30.23S
WOODRUFF       PTCLDY     5   1  85 CALM      30.23S
RHINELANDER    FOG        3   0  87 CALM      30.23S VSB 3/4
EAGLE RIVER    PTCLDY     1  -3  81 CALM      30.23S
LAND O LAKES   PTCLDY    -4  -8  83 CALM      30.24S
PHILLIPS       CLOUDY    17  15  93 CALM      30.23S
TOMAHAWK       CLEAR      7   4  88 CALM      30.25S
MEDFORD        CLOUDY    21  19  91 CALM      30.23S
MERRILL        CLEAR      9   7  92 CALM      30.25S
$$

WIZ029-030-035-036-043>047-191000-
CENTRAL WISCONSIN

CITY           SKY/WX    TMP DP  RH WIND       PRES   REMARKS
WAUSAU         CLEAR     16  13  88 NW5       30.24S WCI   9
MOSINEE        CLEAR     18  18 100 N5        30.26S WCI  11
MARSHFIELD     CLOUDY    24  19  81 CALM      30.25S
STEVENS POINT  CLEAR     10   8  88 CALM      30.27S
WAUPACA        CLEAR     17  14  90 CALM      30.28S
WAUTOMA        MOCLDY    15  13  92 CALM      30.28S
WISC RAPIDS    CLOUDY    22  18  85 CALM      30.28S
CAMP DOUGLAS   CLOUDY    23  23 100 W5        30.27F WCI  17
$$

WIZ011>013-019>022-031-037>040-048>050-191000-
NORTHEAST WISCONSIN

CITY           SKY/WX    TMP DP  RH WIND       PRES   REMARKS
ANTIGO         CLEAR      9   7  93 CALM      30.24S
SHAWANO        CLEAR     17  14  88 CALM      30.29S
OCONTO         CLEAR     14  13  96 CALM      30.28F
STURGEON BAY   CLOUDY    19  14  79 NW3       30.28S
GREEN BAY      CLEAR     18  16  92 CALM      30.28S
MANITOWOC      CLOUDY    25  22  88 NW6       30.27S WCI  18
APPLETON       CLEAR     18  18 100 NW7       30.27S WCI   8
CLINTONVILLE   CLEAR     18  14  86 CALM      30.28S
OSHKOSH        CLEAR     19  16  88 W5        30.27S WCI  12
$$

WIZ032>034-041-042-053>061-191000-
SOUTHWEST WISCONSIN

CITY           SKY/WX    TMP DP  RH WIND       PRES   REMARKS
LA CROSSE      CLOUDY    26  18  71 CALM      30.30S
SPARTA         CLOUDY    24  20  83 CALM      30.30S
VIROQUA        CLOUDY    23  19  87 CALM      30.26S
BOSCOBEL       CLOUDY    26  18  71 NW3       30.31R
PRAIRIE DU CHI CLOUDY    26  18  72 SW3       30.31R
PLATTEVILLE    CLOUDY    24  20  82 CALM      30.29S
$$

WIZ056-057-062-063-064-067-068-191000-
SOUTH CENTRAL WISCONSIN

CITY           SKY/WX    TMP DP  RH WIND       PRES   REMARKS
REEDSBURG      CLOUDY    24  20  84 W5        30.28S WCI  18
BARABOO/DELLS  CLOUDY    25  20  82 CALM      30.27S
LONE ROCK      CLOUDY    28  19  69 W5        30.30S WCI  23
MINERAL POINT  CLOUDY    27  21  80 CALM      30.26S
MADISON        CLOUDY    26  20  77 NW5       30.27S WCI  20
MIDDLETON      CLOUDY    28  22  78 W3        30.28R
WATERTOWN      CLOUDY    25  23  91 N3        30.28S
MONROE         CLOUDY    27  23  86 CALM      30.26S
JANESVILLE     CLOUDY    28  23  80 CALM      30.28S
$$

WIZ051-052-058>065-066-070>072-191000-
SOUTHEAST WISCONSIN

CITY           SKY/WX    TMP DP  RH WIND       PRES   REMARKS
MILWAUKEE      CLOUDY    28  19  69 NW9       30.27S WCI  19
WAUKESHA       CLOUDY    25  21  86 NW6       30.27F WCI  18
MILWAUKEE/TIMM CLOUDY    27  19  74 NW8       30.28S WCI  18
RACINE         CLOUDY    27  20  75 W6        30.28S WCI  20
BURLINGTON     CLOUDY    25  20  83 CALM      30.28S
KENOSHA        CLOUDY    27  21  78 NW7       30.27R WCI  19
FOND DU LAC    CLEAR     17  13  84 CALM      30.28S
SHEBOYGAN      CLOUDY    22  17  81 NW6       30.26S WCI  14
WEST BEND      CLEAR     19  18  93 CALM      30.27R
JUNEAU         MOCLDY    20  18  93 W3        30.28S
$$

LSZ147-162-191000-
LAKE SUPERIOR

STATION/POSITION TIME  TEMP    WIND        PRES    WAVE
                       AIR SEA DIR/SP/G            HT/PER
                 (UTC) (F)     (DEG/KT/KT) (MB)    (FT/S)
DEVILS ISLAND    0900   25     190/  7/  9 1026.6S
PORT WING        0840   23     170/  3/  4 1025.4S
SAXON HARBOR     0800   17        CALM     1025.7R
$$

LMZ867-665-643>646-191000-
LAKE MICHIGAN

STATION/POSITION TIME  TEMP    WIND        PRES    WAVE
                       AIR SEA DIR/SP/G            HT/PER
                 (UTC) (F)     (DEG/KT/KT) (MB)    (FT/S)
CHAMBERS ISLAND  0800   25     310/  6/  9 1025.4R
NORTHPORT PIER   0904   27     340/  6/  8 1025.1R
SISTER BAY       0813             CALM       N/A
ALGOMA LAKESHORE 0814          330/  7/  8   N/A
KEWAUNEE LAKESHO 0900   24     290/  4/  7 1024.0R
SHEBOYGAN LAKESH 0900   25 34  290/ 10/ 12 1026.0F
PORT WASHINGTON  0840   24     290/  5/  7 1026.1R
MILWAUKEE LAKESH 0900   28     310/  9/ 12   N/A
KENOSHA   LAKESH 0900   28     290/  7/ 10 1025.1S
$$

TC  - TEMPERATURE IN CELSIUS
VSB - VISIBILITY IN STATUTE MILES
WCI - WIND CHILL INDEX
HX  - HEAT INDEX




USA.gov is the U.S. government's official web portal to all federal, state and local government web resources and services.